This is the latest recevied weather packets stored in our database for station/object DM3DP. If no packets are shown the sender has not sent any weather packets the latest 10 day(s).
| Time | Temp. | Humidity | Pressure | Rain* | Wind** | Luminosity | Snow |
|---|---|---|---|---|---|---|---|
| 1777454105 | 16.11° C | 32% | 1023.2 hPa | 0 mm | - | 767 W/m² | - |
| 1777453776 | 16.11° C | 32% | 1023.2 hPa | 0 mm | - | 769 W/m² | - |
| 1777453446 | 16.11° C | 34% | 1023.2 hPa | 0 mm | - | 770 W/m² | - |
| 1777453115 | 16.11° C | 35% | 1023.2 hPa | 0 mm | - | 772 W/m² | - |
| 1777452786 | 15.56° C | 32% | 1023.2 hPa | 0 mm | - | 772 W/m² | - |
| 1777452455 | 15.56° C | 32% | 1023.2 hPa | 0 mm | - | 772 W/m² | - |
| 1777452126 | 15.56° C | 36% | 1023.2 hPa | 0 mm | - | 773 W/m² | - |
| 1777451796 | 15.56° C | 32% | 1023.3 hPa | 0 mm | - | 774 W/m² | - |
| 1777451465 | 15.56° C | 32% | 1023.3 hPa | 0 mm | - | 772 W/m² | - |
| 1777451135 | 15° C | 36% | 1023.3 hPa | 0 mm | - | 767 W/m² | - |
| 1777450805 | 15° C | 38% | 1023.3 hPa | 0 mm | - | 768 W/m² | - |
| 1777450476 | 15° C | 36% | 1023.3 hPa | 0 mm | - | 762 W/m² | - |
| 1777450145 | 14.44° C | 36% | 1023.3 hPa | 0 mm | - | 760 W/m² | - |
| 1777449815 | 14.44° C | 36% | 1023.3 hPa | 0 mm | - | 755 W/m² | - |
| 1777449485 | 14.44° C | 42% | 1023.2 hPa | 0 mm | - | 750 W/m² | - |
| 1777449155 | 14.44° C | 37% | 1023.2 hPa | 0 mm | - | 747 W/m² | - |
| 1777448826 | 13.89° C | 43% | 1023.2 hPa | 0 mm | - | 744 W/m² | - |
| 1777448495 | 13.89° C | 44% | 1023.1 hPa | 0 mm | - | 734 W/m² | - |
| 1777448165 | 13.89° C | 44% | 1023.1 hPa | 0 mm | - | 731 W/m² | - |
| 1777447836 | 13.33° C | 46% | 1022.9 hPa | 0 mm | - | 713 W/m² | - |
| 1777447505 | 12.78° C | 48% | 1022.9 hPa | 0 mm | - | 708 W/m² | - |
| 1777447175 | 12.78° C | 48% | 1022.9 hPa | 0 mm | - | 698 W/m² | - |
| 1777446845 | 12.22° C | 48% | 1022.9 hPa | 0 mm | - | 690 W/m² | - |
| 1777446516 | 12.22° C | 50% | 1022.9 hPa | 0 mm | - | 670 W/m² | - |
| 1777446186 | 12.22° C | 50% | 1022.9 hPa | 0 mm | - | 664 W/m² | - |
* Rain latest hour (hover to see other rain measurements)
** Current wind speed in m/s (hover to see current wind gust speed)